C/2017 B3 ( LINEAR )

Japanese version
Home page
Updated on March 25, 2017

---------------------------------------------------------------------

* Profile

Discovery Date January 26, 2017
Magnitude 19.2 mag
Discoverer LINEAR survey (Space Surveillance Telescope, Atom Peak, White Sands Missile Range, NM, USA)

* Pictures

* Orbital Elements

Epoch 2019 Feb. 6.0 TT = JDT 2458520.5
T 2019 Feb. 2.89446 TT                                  MPCW
q   3.9237876            (2000.0)            P               Q
z  -0.0002542      Peri.  284.73526     +0.27564787     +0.96076633
 +/-0.0004409      Node     2.17437     -0.19824070     +0.08813172
e   1.0009974      Incl.   54.17310     -0.94059496     +0.26298451
From 100 observations 2017 Jan. 26-Mar. 4, mean residual 0".5.

* Magnitudes Graph

        m1 = 6.0 + 5 log d + 10.0 log r

---------------------------------------------------------------------

The orbital elements are published on M.P.E.C. 2017-E59.
The magnitudes graphs are made with Comet for Windows.

---------------------------------------------------------------------

Copyright(C) Seiichi Yoshida (comet@aerith.net). All rights reserved.